Regional Weather Roundup
Issued by NWS Northern Indiana

Home | Current Version | Previous Version | Text Only | Print | Product List | Glossary On
Versions: 1 2 3 4 5 6 7 8 9 10 11 12 13 14 15 16 17 18 19 20 21 22 23 24 25 26 27 28 29 30 31 32 33 34 35 36 37 38 39 40 41 42 43 44 45 46 47 48 49 50
000
ASUS43 KIWX 030410
RWRIWX

KIWX WEATHER ROUNDUP
NATIONAL WEATHER SERVICE NORTHERN INDIANA
1200 AM EDT WED SEP 03 2014

NOTE: "FAIR" INDICATES FEW OR NO CLOUDS BELOW 12,000 FEET WITH NO
SIGNIFICANT WEATHER AND/OR OBSTRUCTIONS TO VISIBILITY.

* THESE STATIONS ARE NOT UNDER NWS QUALITY CONTROL. THEY ALSO MAY NOT
  REPORT WEATHER SUCH AS PRECIPITATION OR FOG.

INZ001>027-030500-
NORTHERN INDIANA

CITY           SKY/WX    TMP DP  RH WIND       PRES   REMARKS
GARY*          PTCLDY    66  64  94 CALM      29.97R
VALPARAISO     MOCLDY    66  63  90 CALM      29.98R
MICHIGAN CITY* PTCLDY    63  63 100 CALM      29.97S
LAPORTE*       MOCLDY    64  64 100 CALM      29.98R
KNOX*          CLEAR     66  63  88 S3        29.96S
SOUTH BEND     PTCLDY    66  60  81 CALM      29.98R
GOSHEN         CLEAR     63  61  93 CALM      29.98R
MONTICELLO*    CLEAR     68  67  98 CALM      29.97S
LOGANSPORT*    CLEAR     64  63  94 S6        29.99S FOG
ROCHESTER*     CLEAR     70  68  94 CALM      29.99R
WARSAW*        CLEAR     61  61 100 CALM      29.99R
ANGOLA*        CLOUDY    61  52  72 CALM      29.99R VSB 1/4
FORT WAYNE     MOCLDY    66  65  96 SW3       30.00R
HUNTINGTON*    CLOUDY    67  66  96 SW3       29.99R
PERU/GRISSOM   CLEAR     66  66 100 SW7       29.99R
MARION*        CLEAR     65  64  97 SW5       30.01R

$$
INZ028>050-030500-
CENTRAL INDIANA

CITY           SKY/WX    TMP DP  RH WIND       PRES   REMARKS
LAFAYETTE      CLEAR     66  66 100 CALM      29.99R FOG
KOKOMO*        CLEAR     66  63  88 SW3       30.00R
MUNCIE*        CLEAR     69  65  86 SW6       30.01R
INDIANAPOLIS   CLEAR     67  65  93 SW5       30.01R

$$
MIZ043>046-050>051-056>058-064>065-071>073-077>080-030500-
SOUTHWEST LOWER MICHIGAN

CITY           SKY/WX    TMP DP  RH WIND       PRES   REMARKS
BATTLE CREEK   CLEAR     65  60  84 CALM      29.98R
BENTON HARBOR  PTCLDY    63  61  93 CALM      29.96R
COLDWATER*     CLOUDY    63  62  96 CALM      29.98R
HILLSDALE*     CLEAR     59  59 100 CALM      29.98S
HOLLAND        CLEAR     64  62  93 CALM      29.96R
GRAND RAPIDS   CLEAR     63  60  90 CALM      29.96R
KALAMAZOO      MOCLDY    65  62  90 SW3       29.97R
STURGIS*         N/A     61  61 100 CALM      29.97S
THREE RIVERS*  FAIR      64  61  89 CALM      29.98R FOG

$$
OHZ001>008-015>018-024>025-030500-
NORTHWEST OHIO

CITY           SKY/WX    TMP DP  RH WIND       PRES   REMARKS
WAUSEON*       FAIR      61  59  94 CALM      29.98R
DEFIANCE       FOG       62  61  96 S5        29.98R VSB 1/4
FINDLAY        CLEAR     66  64  93 S5        29.98R
TOLEDO EXPRESS CLEAR     65  64  97 CALM      29.97R
TOLEDO METCALF CLEAR     67  64  90 SW3       29.97R
LIMA           CLEAR     67  64  90 CALM      30.00R FOG

$$
&&


USA.gov is the U.S. government's official web portal to all federal, state and local government web resources and services.